Theta_e
315 315 315 314 313 313 313 313 313 313 313 313 313 313 313 313 313 312 312 312 311 311 311 313 313 314 308 299 302 313 329 324 316 307 302 299 294 291 287 288 290 289 291 294 297 298 298
313 314 314 313 313 312 312 312 312 312 313 313 313 313 312 313 312 312 312 311 310 310 311 313 313 316 303 290 306 311 316 317 315 306 303 301 296 295 290 289 288 291 291 292 294 296 297
313 313 314 313 312 312 311 311 312 312 312 312 312 313 312 312 312 312 311 311 310 310 312 313 315 314 300 292 306 307 313 308 312 308 302 303 300 294 293 289 291 291 287 290 292 294 295
313 314 313 313 312 312 311 311 312 312 313 313 312 311 312 312 311 311 311 312 311 312 313 314 315 307 295 304 307 308 306 304 307 307 305 302 299 293 291 291 291 286 285 281 287 292 294
313 313 313 312 312 312 311 311 312 312 312 311 311 310 310 311 311 312 311 311 312 313 314 315 306 298 298 312 306 303 301 299 299 301 302 306 297 292 291 286 283 284 278 281 287 291 291
312 312 312 312 312 312 312 312 311 312 311 311 311 310 310 310 310 311 310 311 310 313 314 313 311 297 300 301 305 303 301 301 298 297 296 295 290 287 285 283 278 281 281 283 284 289 291
311 312 311 311 311 311 311 311 310 311 311 310 310 310 310 310 311 311 306 298 295 293 302 294 299 298 302 307 306 299 302 299 298 294 286 289 286 283 286 287 287 286 284 284 286 290 289
311 311 311 311 311 311 311 310 311 310 310 309 309 309 309 310 310 310 300 299 299 298 291 299 298 302 305 305 298 301 301 294 292 286 288 286 282 288 290 289 288 286 283 283 288 291 289
311 312 312 311 311 312 312 312 311 310 309 309 309 308 309 309 310 301 298 301 303 298 289 294 299 298 298 301 296 296 298 294 290 285 284 283 287 292 290 289 288 285 284 285 286 289 289
311 311 312 311 311 311 312 311 310 309 307 308 308 307 308 308 300 299 299 303 302 298 286 293 295 298 298 297 294 301 300 296 289 285 286 285 289 289 287 287 289 282 290 290 287 284 278
310 310 310 311 311 311 311 310 307 307 307 307 307 308 308 307 297 298 302 302 300 299 276 295 293 299 296 294 295 297 299 294 289 288 286 285 286 285 285 287 291 285 291 288 287 282 280
309 310 310 309 311 311 309 308 307 307 307 308 308 308 308 303 298 301 302 301 300 286 278 289 293 292 290 292 293 296 296 297 294 288 287 287 290 288 288 292 291 291 287 284 281 280 274
309 310 310 311 311 310 308 307 307 307 307 307 308 308 305 303 296 299 300 298 286 279 291 287 287 290 288 290 292 293 291 289 286 283 282 286 285 291 293 287 288 285 280 274 273 273 273
310 310 310 311 310 309 307 307 306 306 306 307 307 305 305 304 301 302 297 290 280 288 286 291 290 289 287 290 290 292 290 286 292 287 282 281 279 288 294 287 284 282 281 274 271 272 273
310 311 310 310 310 307 307 306 306 306 306 306 305 300 301 304 305 299 293 283 283 287 292 290 289 285 286 290 290 289 289 289 292 291 284 283 283 291 292 291 289 282 280 282 277 276 272
310 310 310 310 308 306 306 306 306 306 305 305 296 298 300 303 301 297 289 287 288 294 293 292 283 287 283 286 286 285 288 293 292 294 292 287 281 290 292 291 289 285 287 277 276 272 272
309 310 310 309 307 307 305 305 306 306 304 304 296 296 301 302 301 294 284 287 292 296 295 291 287 286 286 286 286 285 287 292 295 293 293 289 286 285 289 286 283 282 281 282 279 275 270
309 310 310 308 306 305 305 305 305 304 303 299 293 290 301 300 290 285 285 290 295 293 296 293 290 288 287 288 286 286 286 291 296 296 288 291 286 282 284 289 290 286 283 282 274 273 281
309 309 309 307 306 305 305 305 305 304 303 298 290 291 300 298 282 283 287 290 292 292 293 291 289 290 289 285 283 287 289 294 293 292 291 291 283 279 280 282 285 284 286 284 282 280 279
308 309 309 307 306 304 305 305 305 304 303 295 289 285 288 289 287 285 284 286 288 294 292 291 289 289 287 284 286 285 286 292 293 293 297 295 285 283 277 279 281 281 285 286 285 281 280
308 309 308 307 305 304 304 305 305 303 303 293 288 283 286 280 282 283 284 286 286 287 290 290 287 286 284 281 283 284 286 288 292 293 290 289 283 284 285 287 287 286 286 286 284 285 281
308 308 308 307 305 304 304 304 304 303 302 293 286 284 286 283 285 284 284 283 285 287 287 286 284 286 285 281 284 283 284 285 285 288 287 286 280 283 282 287 287 284 286 286 286 287 286
307 308 308 307 305 303 303 303 303 303 298 289 290 289 288 284 282 282 281 284 285 286 288 290 287 285 284 286 288 289 289 290 288 285 284 285 282 281 279 284 284 280 285 286 287 289 288
307 308 308 307 305 303 303 303 303 303 298 290 289 288 286 280 283 283 286 287 285 286 284 289 289 283 288 292 291 290 288 288 289 288 288 282 282 283 279 281 275 283 291 291 289 290 291
307 308 308 306 304 303 303 303 303 303 302 292 290 288 285 279 284 284 286 286 286 286 284 286 288 290 291 288 283 282 283 285 287 291 286 287 285 282 280 277 280 285 288 287 285 286 293
306 307 308 306 304 303 302 303 302 302 302 292 290 291 287 285 280 288 285 285 281 280 281 285 289 291 288 285 286 281 275 282 283 288 292 290 289 285 282 273 268 282 291 294 291 283 293
306 307 307 306 304 303 302 302 302 302 301 295 292 291 289 285 285 285 282 282 284 280 279 282 286 285 288 286 282 281 281 289 279 277 283 284 285 281 282 279 280 288 293 294 280 282 293
306 307 307 306 304 303 302 302 302 301 301 296 292 292 293 288 287 288 289 284 283 282 278 282 282 284 283 280 285 283 281 282 278 283 282 277 280 279 282 279 275 292 291 285 289 296 296
306 307 307 306 304 303 302 302 302 301 301 300 290 294 295 291 286 289 291 292 291 289 284 283 282 283 285 280 280 281 278 281 281 273 285 278 282 278 279 278 286 291 292 295 298 296 294
Wind_Speed
17 18 19 20 20 20 19 19 20 20 19 20 21 21 20 20 19 18 18 17 16 15 15 14 13 10 5 3 8 3 10 10 6 5 3 3 4 3 2 2 1 2 2 2 3 5 6
18 18 19 20 20 21 21 22 22 22 20 21 21 22 22 22 21 19 18 16 15 15 14 13 10 7 1 3 1 4 8 7 5 3 3 5 5 6 3 2 2 1 2 5 5 5 5
19 19 19 20 20 20 22 23 24 22 22 23 21 21 23 23 22 20 18 16 14 14 13 10 7 2 1 12 1 4 7 6 6 5 4 5 3 2 4 2 2 2 2 4 7 7 8
18 18 18 19 19 20 22 23 23 23 22 21 22 23 23 23 23 22 20 17 15 13 11 8 6 1 8 5 3 7 4 4 6 6 5 2 4 2 2 1 6 3 4 2 4 1 6
17 17 18 18 19 19 20 21 23 23 24 23 24 24 24 25 24 23 22 20 16 8 6 5 3 2 9 9 3 3 5 3 4 4 4 1 4 3 5 4 5 5 1 1 8 5 4
18 18 19 19 19 19 19 20 23 22 25 25 23 23 24 25 25 24 23 17 1 7 7 5 3 2 5 4 4 4 4 3 1 2 4 5 5 4 3 4 3 1 2 2 4 5 6
19 19 20 20 20 20 20 21 25 25 25 26 25 23 23 24 24 22 9 2 5 3 3 6 4 4 5 6 4 2 3 2 3 7 2 4 5 3 7 7 2 1 3 3 4 3 7
19 20 21 21 22 19 20 24 23 25 25 26 26 26 25 24 23 18 2 5 2 3 7 7 6 6 5 1 4 7 2 4 3 1 1 6 1 5 3 4 4 4 2 3 4 5 2
19 19 19 20 21 21 21 22 24 24 24 24 25 25 24 23 23 3 2 3 4 4 0 7 4 4 5 8 5 6 6 2 2 1 3 5 5 1 1 2 3 2 3 2 5 4 5
19 19 20 20 20 21 23 24 25 26 27 26 25 24 22 22 2 2 1 3 6 2 4 4 3 3 4 4 4 7 7 6 1 5 4 4 3 3 2 3 5 3 5 3 2 4 3
19 20 21 21 21 22 23 25 27 27 27 26 25 23 17 7 3 1 3 7 3 4 4 2 1 2 2 4 2 2 2 3 7 4 3 5 4 3 1 3 4 4 2 1 1 2 1
20 21 20 23 21 22 23 24 27 27 27 27 25 20 9 2 1 6 7 6 4 6 1 3 3 6 4 3 3 4 3 4 2 4 2 7 2 4 6 3 2 2 3 5 4 2 2
18 20 20 21 21 23 24 24 27 28 28 28 26 18 3 2 1 5 5 4 5 4 3 4 3 4 3 3 4 2 3 1 5 3 3 2 1 3 2 4 3 6 6 5 6 4 5
16 17 20 21 22 23 24 25 26 28 29 30 25 7 2 3 4 5 4 6 3 2 2 3 3 7 5 3 1 5 4 1 5 2 2 5 3 4 2 4 5 3 7 6 5 4 5
18 17 19 22 22 24 24 24 26 27 29 28 15 3 3 3 2 3 6 4 5 1 4 4 6 3 2 1 4 5 4 2 2 1 4 4 4 2 1 3 7 2 3 3 2 3 3
17 18 18 20 22 24 25 25 26 27 28 24 3 3 4 7 1 5 6 3 3 2 4 2 4 2 2 2 2 0 2 2 3 2 0 2 2 2 3 3 0 5 6 3 3 2 5
16 16 17 19 21 22 25 26 27 28 29 16 4 3 3 7 3 6 4 4 4 4 3 3 3 4 5 3 4 2 4 3 5 9 6 3 3 3 1 5 7 1 2 4 3 5 5
15 14 16 19 20 22 24 24 25 26 29 8 3 3 4 3 5 2 0 1 5 5 2 5 3 4 4 4 3 4 5 5 8 2 5 4 4 4 8 3 3 5 7 6 5 5 4
14 14 14 19 19 19 21 23 24 24 22 2 2 3 4 4 3 3 6 5 4 3 3 4 3 2 3 1 3 4 3 4 4 4 4 4 1 1 5 1 4 3 4 5 3 2 11
12 14 13 18 18 19 20 22 24 25 21 3 3 4 6 6 2 3 4 5 5 4 2 4 4 2 4 2 3 4 2 3 2 3 10 2 6 6 7 5 4 3 7 6 6 6 9
12 13 10 15 17 19 20 21 23 26 21 3 4 0 3 4 2 2 2 3 4 4 5 5 3 6 3 4 4 6 5 3 6 8 5 7 8 7 8 9 7 11 17 18 15 19 14
12 13 11 12 14 17 17 19 21 26 20 5 3 3 3 3 2 4 2 2 2 4 3 4 2 7 5 5 8 16 2 4 6 5 4 1 2 4 4 9 12 18 20 19 20 20 19
11 12 11 11 12 14 15 16 17 19 12 4 2 2 2 3 2 1 4 2 2 4 6 6 3 5 6 11 5 10 11 12 9 6 4 3 3 2 5 1 6 10 16 12 7 7 8
11 12 10 10 10 12 13 14 14 14 8 2 1 1 2 5 2 4 3 5 11 4 4 11 8 5 6 7 10 11 13 16 14 16 10 6 5 3 5 2 6 6 4 5 7 7 8
11 11 9 9 9 10 11 12 12 11 9 3 0 2 1 4 3 9 6 5 6 6 5 6 8 6 5 5 4 7 4 2 1 3 8 10 5 3 3 4 8 7 2 1 4 7 5
11 12 8 8 7 8 9 10 10 10 9 3 1 2 2 3 5 4 3 2 3 4 6 5 7 5 2 1 2 3 3 3 3 1 5 5 7 3 1 1 6 5 3 5 4 9 4
10 12 9 8 8 8 8 9 10 9 8 3 1 2 2 3 5 1 4 3 2 1 3 5 7 7 4 3 2 2 3 4 2 3 2 3 3 8 6 5 9 4 5 2 1 3 9
9 11 10 9 8 8 8 8 9 9 8 2 3 4 2 3 8 6 3 5 1 3 3 5 5 3 4 4 3 3 3 2 3 3 3 3 3 3 3 4 8 2 1 4 5 16 19
10 10 10 9 8 8 7 8 10 8 7 4 2 2 2 4 7 3 14 17 14 11 5 3 4 0 3 2 2 1 3 3 1 3 3 3 5 4 8 8 5 4 8 7 13 12 13
Wind_Direction
5 2 359 357 355 352 349 348 345 343 341 339 339 337 336 334 331 327 323 318 312 307 305 308 314 323 345 305 251 295 141 142 115 125 187 158 135 159 204 196 349 167 299 329 305 272 259
2 360 356 356 353 349 348 344 343 343 340 338 335 334 333 332 330 326 323 317 310 303 300 302 307 321 329 280 231 10 136 137 157 170 221 175 199 198 152 149 152 222 291 281 264 229 242
1 360 355 354 352 349 348 345 342 342 340 338 336 333 331 329 327 325 322 314 305 297 290 294 291 270 329 238 310 2 174 194 180 182 214 209 201 159 131 319 219 251 306 301 220 216 226
360 358 354 352 351 349 348 345 344 342 338 336 335 333 331 328 327 324 321 312 301 286 277 274 264 206 249 251 273 300 172 255 209 218 228 260 196 123 133 175 13 48 59 25 287 145 249
359 357 354 353 351 348 344 339 344 341 340 338 335 333 331 330 327 325 320 311 303 270 223 196 155 186 273 309 275 276 156 232 177 171 207 224 97 104 40 80 5 5 147 296 320 33 337
358 356 354 353 350 346 340 338 344 338 339 337 334 332 331 329 328 325 321 309 203 106 114 161 239 330 280 323 306 299 205 234 344 349 40 64 47 81 47 80 213 227 356 306 257 324 5
356 354 354 352 349 346 340 341 340 339 338 335 334 332 330 329 327 327 335 72 21 2 179 205 193 253 272 304 295 310 309 134 87 55 32 10 73 210 249 208 174 109 185 230 285 347 9
353 353 350 351 348 340 341 340 337 337 335 332 332 333 330 328 327 326 313 76 96 216 309 233 233 246 271 54 310 301 178 169 103 271 47 22 211 212 267 164 181 180 174 231 288 286 298
346 346 345 346 342 343 338 337 339 335 333 331 329 332 330 328 322 5 357 100 356 163 273 297 199 196 209 147 222 262 149 130 162 174 189 162 240 5 95 108 131 155 160 222 235 311 290
345 345 342 344 341 339 337 339 339 336 334 331 331 332 330 329 13 305 304 345 341 181 43 294 293 284 154 170 268 217 188 147 120 218 185 218 260 155 133 201 140 195 202 214 259 34 290
346 347 348 343 339 341 342 342 340 337 333 330 333 331 329 327 294 88 315 342 321 62 54 280 309 165 129 174 304 287 161 86 209 201 101 259 181 226 1 212 175 202 159 333 293 238 103
347 348 343 346 341 344 345 345 340 338 334 332 332 332 334 81 22 256 321 317 61 48 246 329 19 354 351 287 290 301 183 87 141 164 198 248 244 181 201 115 100 77 40 34 51 76 25
344 345 341 346 344 345 346 346 342 339 337 337 335 336 147 134 296 318 322 50 43 115 333 333 317 342 295 297 341 9 260 72 180 130 238 261 213 303 134 107 48 72 51 340 347 5 233
343 345 343 345 344 348 348 346 346 342 340 340 335 336 187 220 283 337 43 54 103 282 300 285 290 299 204 350 359 334 23 66 37 69 147 172 306 166 180 145 187 188 151 157 242 228 244
336 339 349 347 348 348 349 349 347 345 342 340 330 336 327 278 235 72 69 65 196 273 307 290 315 259 278 87 14 24 12 21 7 327 225 154 271 308 184 175 136 170 174 193 146 7 35
336 341 346 351 348 349 349 350 349 347 345 343 16 355 292 322 61 63 75 225 231 257 305 270 229 251 255 299 328 301 242 146 341 285 294 177 305 276 313 79 296 156 162 86 19 254 259
336 342 342 354 351 348 350 351 350 350 346 339 35 36 272 330 64 48 116 239 283 281 343 280 261 264 257 246 220 245 232 223 147 263 359 161 181 267 280 197 198 166 169 74 129 152 197
333 338 343 351 353 349 349 351 352 353 348 34 29 10 311 9 45 18 154 260 295 273 286 280 245 237 224 219 232 246 232 228 203 153 214 190 161 223 234 270 225 169 192 154 135 246 216
331 338 346 349 351 351 350 350 350 353 358 339 52 286 324 50 80 338 318 300 268 303 317 316 307 27 7 272 285 247 281 81 63 159 189 182 239 284 315 17 355 162 181 184 183 127 229
328 330 348 348 348 354 354 352 350 350 354 77 57 10 332 36 32 76 348 275 289 335 286 340 287 36 359 306 227 271 297 300 44 178 295 193 188 205 222 232 157 281 257 220 213 242 270
320 322 347 347 350 351 358 355 353 348 347 84 24 167 168 304 340 328 238 278 289 321 345 359 353 55 338 285 305 253 263 306 299 291 288 179 224 206 236 249 269 258 261 259 243 249 245
315 321 334 351 353 348 358 359 359 353 347 71 60 30 2 275 290 308 224 235 291 1 306 292 47 318 291 229 232 282 274 206 224 289 187 36 268 169 255 235 241 257 259 253 253 252 256
310 313 325 346 356 346 354 358 6 7 15 55 340 358 100 277 317 354 240 261 239 28 269 243 337 288 269 273 259 260 240 245 237 212 214 178 141 30 267 228 295 271 252 239 218 217 204
301 305 316 337 353 343 349 351 1 17 63 110 310 77 72 280 243 222 288 300 287 259 261 274 283 268 254 321 294 269 248 249 243 239 212 180 149 190 267 35 242 235 237 231 226 248 247
293 297 309 330 339 342 342 342 352 360 27 88 145 108 102 276 249 289 250 244 303 295 247 262 277 216 309 304 310 326 343 187 59 212 194 207 168 236 251 217 296 276 38 200 186 278 258
287 290 297 306 322 335 333 332 341 345 5 87 164 150 113 294 253 329 322 271 280 299 319 282 301 301 323 257 250 315 290 317 351 56 68 160 179 212 358 272 248 244 140 110 99 276 62
277 281 286 290 305 324 323 329 332 334 353 109 240 200 103 267 274 190 218 228 183 217 267 298 321 338 27 323 324 287 279 316 333 316 323 131 195 222 242 255 280 259 156 141 352 314 321
267 276 279 281 297 307 314 324 319 323 328 71 258 194 199 249 279 245 234 197 253 143 201 281 359 345 338 27 324 2 326 329 342 277 296 195 199 219 237 237 269 146 47 222 262 312 295
257 268 268 274 286 292 303 317 306 309 311 337 263 204 168 231 254 237 262 248 228 208 151 253 209 327 224 33 350 289 326 326 250 286 322 288 190 212 183 229 240 223 235 270 306 285 305